,,,PA_Meas_PMT16A,,PR_Meas_QMR101_102,,RH_Meas_QMH101,,SR_Meas_QMS101,,TA_Meas_QMH101,,GenWind,,GenWind,
date,time,status,PA,status,PR,status,RH,status,SR,status,TA,status,DirAvg,status,SpdAvg,
2012-07-29, 07:26:04,VALID,1005.08,VALID,0,VALID,75.0071,VALID,115.661,VALID,26.8388,VALID,112,VALID,2.65977,
2012-07-29, 07:27:04,VALID,1005.05,VALID,0,VALID,76.0523,VALID,118.84,VALID,26.8993,VALID,105,VALID,2.175,
2012-07-29, 07:28:04,VALID,1005.07,VALID,0,VALID,75.5259,VALID,122.345,VALID,26.8368,VALID,100,VALID,2.12422,
2012-07-29, 07:29:04,VALID,1005.09,VALID,0,VALID,76.2507,VALID,125.931,VALID,26.8368,VALID,143,VALID,1.59961,
2012-07-29, 07:30:04,VALID,1005.09,VALID,0,VALID,75.0834,VALID,129.518,VALID,26.8583,VALID,111,VALID,2.81953,
2012-07-29, 07:31:04,VALID,1005.14,VALID,0,VALID,74.8469,VALID,132.941,VALID,26.8368,VALID,126,VALID,2.65742,
2012-07-29, 07:32:04,VALID,1005.11,VALID,0,VALID,74.7325,VALID,135.794,VALID,26.8563,VALID,110,VALID,1.65547,
2012-07-29, 07:33:04,VALID,1005.18,VALID,0,VALID,74.6791,VALID,138.076,VALID,26.8563,VALID,90,VALID,2.18398,
2012-07-29, 07:34:04,VALID,1005.19,VALID,0,VALID,74.7783,VALID,139.951,VALID,26.8563,VALID,115,VALID,1.75469,
2012-07-29, 07:35:04,VALID,1005.23,VALID,0,VALID,74.2672,VALID,140.847,VALID,26.8563,VALID,100,VALID,2.57383,
2012-07-29, 07:36:04,VALID,1005.26,VALID,0,VALID,74.6867,VALID,140.603,VALID,26.8347,VALID,123,VALID,2.02109,
2012-07-29, 07:37:04,VALID,1005.24,VALID,0,VALID,74.7401,VALID,139.136,VALID,26.8173,VALID,103,VALID,1.84492,
2012-07-29, 07:38:04,VALID,1005.27,VALID,0,VALID,75.2513,VALID,136.69,VALID,26.8368,VALID,104,VALID,1.57617,
2012-07-29, 07:39:04,VALID,1005.28,VALID,0,VALID,74.5876,VALID,133.267,VALID,26.8193,VALID,92,VALID,1.75,
2012-07-29, 07:40:04,VALID,1005.26,VALID,0,VALID,74.0612,VALID,129.192,VALID,26.7783,VALID,99,VALID,2.3,
2012-07-29, 07:41:04,VALID,1005.31,VALID,0,VALID,72.9702,VALID,125.116,VALID,26.7978,VALID,97,VALID,1.45547,
2012-07-29, 07:42:04,VALID,1005.29,VALID,0,VALID,72.6498,VALID,121.53,VALID,26.7783,VALID,98,VALID,2.53516,
2012-07-29, 07:43:04,VALID,1005.35,VALID,0,VALID,73.9239,VALID,119.085,VALID,26.8193,VALID,100,VALID,1.3207,
2012-07-29, 08:06:04,INVALID - VALUE NOT AVAILABLE,0,INVALID - VALUE NOT AVAILABLE,0,INVALID - VALUE NOT AVAILABLE,0,INVALID - VALUE NOT AVAILABLE,0,INVALID - VALUE NOT AVAILABLE,0,INVALID,360,INVALID,0,
2012-07-29, 08:27:04,INVALID - VALUE NOT AVAILABLE,0,INVALID - VALUE NOT AVAILABLE,0,INVALID - VALUE NOT AVAILABLE,0,INVALID - VALUE NOT AVAILABLE,0,INVALID - VALUE NOT AVAILABLE,0,INVALID,360,INVALID,0,
2012-07-29, 08:35:04,VALID,1005.8,VALID,0,VALID,84.2915,VALID,113.542,VALID,26.4297,VALID,113,VALID,2.17461,
2012-07-29, 08:36:04,VALID,1005.78,VALID,0,VALID,84.2076,VALID,115.906,VALID,26.4472,VALID,92,VALID,2.06953,
2012-07-29, 08:37:04,VALID,1005.82,VALID,0,VALID,84.6577,VALID,118.025,VALID,26.4861,VALID,103,VALID,1.24297,
2012-07-29, 08:38:04,VALID,1005.81,VALID,0,VALID,84.5661,VALID,120.633,VALID,26.5271,VALID,109,VALID,0.736719,
2012-07-29, 08:39:04,VALID,1005.85,VALID,0,VALID,84.9018,VALID,124.79,VALID,26.5446,VALID,126,VALID,1.48789,
2012-07-29, 08:40:04,VALID,1005.84,VALID,0,VALID,83.7956,VALID,128.214,VALID,26.5661,VALID,102,VALID,2.76484,
2012-07-29, 08:41:04,VALID,1005.85,VALID,0,VALID,83.6354,VALID,129.844,VALID,26.5835,VALID,109,VALID,1.92266,
2012-07-29, 08:42:04,VALID,1005.87,VALID,0,VALID,83.3303,VALID,129.518,VALID,26.642,VALID,139,VALID,2.04844,
2012-07-29, 08:43:04,VALID,1005.86,VALID,0,VALID,82.903,VALID,126.665,VALID,26.6809,VALID,126,VALID,2.06133,
2012-07-29, 08:44:04,VALID,1005.86,VALID,0,VALID,82.8496,VALID,123.16,VALID,26.7199,VALID,137,VALID,1.85195,
2012-07-29, 08:46:04,VALID,1005.84,VALID,0,VALID,82.2317,VALID,123.16,VALID,26.7609,VALID,122,VALID,2.15703,
2012-07-29, 08:47:04,VALID,1005.81,VALID,0,VALID,82.636,VALID,133.919,VALID,26.7998,VALID,108,VALID,1.57344,
2012-07-29, 08:48:04,VALID,1005.82,VALID,0,VALID,82.6131,VALID,139.136,VALID,26.7978,VALID,113,VALID,1.63984,
2012-07-29, 08:49:04,VALID,1005.81,VALID,0,VALID,82.2927,VALID,143.863,VALID,26.8173,VALID,107,VALID,2.18672,
2012-07-29, 08:50:04,VALID,1005.81,VALID,0,VALID,82.3232,VALID,144.108,VALID,26.8563,VALID,100,VALID,1.70313,
2012-07-29, 08:51:04,VALID,1005.85,VALID,0,VALID,81.095,VALID,137.098,VALID,26.8952,VALID,121,VALID,3.11641,
2012-07-29, 08:52:04,VALID,1005.81,VALID,0,VALID,81.896,VALID,139.625,VALID,26.9362,VALID,109,VALID,2.42695,
2012-07-29, 08:53:04,VALID,1005.82,VALID,0,VALID,81.5756,VALID,156.66,VALID,26.9537,VALID,143,VALID,2.57148,
2012-07-29, 08:54:04,VALID,1005.83,VALID,0,VALID,81.9418,VALID,165.545,VALID,26.9537,VALID,91,VALID,2.40469,
2012-07-29, 08:55:04,VALID,1005.84,VALID,0,VALID,81.2399,VALID,168.723,VALID,26.9537,VALID,104,VALID,2.38672,
2012-07-29, 08:56:04,VALID,1005.86,VALID,0,VALID,81.774,VALID,169.294,VALID,26.9732,VALID,110,VALID,1.62539,
2012-07-29, 08:57:04,VALID,1005.86,VALID,0,VALID,81.9037,VALID,169.131,VALID,27.0142,VALID,114,VALID,1.74023,
2012-07-29, 08:58:04,VALID,1005.86,VALID,0,VALID,80.5228,VALID,167.256,VALID,26.9926,VALID,111,VALID,2.97773,
2012-07-29, 08:59:04,VALID,1005.86,VALID,0,VALID,80.8585,VALID,165.871,VALID,27.0316,VALID,118,VALID,2.41836,
2012-07-29, 09:00:04,VALID,1005.8,VALID,0,VALID,79.5616,VALID,169.131,VALID,27.0316,VALID,107,VALID,2.69219,
2012-07-29, 09:01:04,VALID,1005.87,VALID,0,VALID,80.7746,VALID,170.435,VALID,27.0726,VALID,123,VALID,2.53672,
2012-07-29, 09:02:04,VALID,1005.82,VALID,0,VALID,79.5082,VALID,171.821,VALID,27.0921,VALID,98,VALID,2.35859,
2012-07-29, 09:03:04,VALID,1005.87,VALID,0,VALID,79.47,VALID,170.354,VALID,27.0706,VALID,133,VALID,2.18359,
2012-07-29, 09:04:04,VALID,1005.84,VALID,0,VALID,79.1878,VALID,174.429,VALID,27.0921,VALID,118,VALID,2.93516,
2012-07-29, 09:05:04,VALID,1005.83,VALID,0,VALID,79.5387,VALID,177.526,VALID,27.0921,VALID,104,VALID,2.26328,
2012-07-29, 09:06:04,VALID,1005.86,VALID,0,VALID,79.6684,VALID,184.373,VALID,27.0921,VALID,107,VALID,1.62656,
2012-07-29, 09:07:04,VALID,1005.87,VALID,0,VALID,79.8973,VALID,189.834,VALID,27.09,VALID,110,VALID,1.86641,
2012-07-29, 09:08:04,VALID,1005.86,VALID,0,VALID,80.1109,VALID,195.866,VALID,27.1116,VALID,93,VALID,2.69922,
2012-07-29, 09:09:04,VALID,1005.9,VALID,0,VALID,79.9964,VALID,202.061,VALID,27.1116,VALID,117,VALID,1.65313,
2012-07-29, 09:10:04,VALID,1005.85,VALID,0,VALID,78.5622,VALID,208.663,VALID,27.09,VALID,85,VALID,2.39414,
2012-07-29, 09:11:04,VALID,1005.91,VALID,0,VALID,78.3715,VALID,216.162,VALID,27.09,VALID,108,VALID,2.64102,
2012-07-29, 09:12:04,VALID,1005.88,VALID,0,VALID,78.6995,VALID,224.639,VALID,27.0921,VALID,87,VALID,1.67813,
2012-07-29, 09:13:04,VALID,1005.88,VALID,0,VALID,77.7001,VALID,234.42,VALID,27.0921,VALID,108,VALID,3.12461,
2012-07-29, 09:14:04,VALID,1005.88,VALID,0,VALID,78.5775,VALID,244.282,VALID,27.0921,VALID,132,VALID,2.33008,
2012-07-29, 09:15:04,VALID,1005.89,VALID,0,VALID,77.7688,VALID,253.9,VALID,27.0726,VALID,108,VALID,2.41719,
2012-07-29, 09:16:04,VALID,1005.9,VALID,0,VALID,78.2876,VALID,261.888,VALID,27.0726,VALID,102,VALID,2.24375,
2012-07-29, 09:17:04,VALID,1005.9,VALID,0,VALID,78.4859,VALID,268.735,VALID,27.0531,VALID,106,VALID,2.36094,
2012-07-29, 09:18:04,VALID,1005.91,VALID,0,VALID,78.7834,VALID,274.441,VALID,27.0726,VALID,102,VALID,2.01211,
2012-07-29, 09:19:04,VALID,1005.92,VALID,0,VALID,78.8903,VALID,277.619,VALID,27.0726,VALID,107,VALID,1.56914,
2012-07-29, 09:20:04,VALID,1005.93,VALID,0,VALID,79.2412,VALID,280.717,VALID,27.0921,VALID,88,VALID,1.63437,
2012-07-29, 09:21:04,VALID,1005.89,VALID,0,VALID,78.463,VALID,282.836,VALID,27.1116,VALID,134,VALID,1.85273,
2012-07-29, 09:22:04,VALID,1005.92,VALID,0,VALID,78.1121,VALID,285.2,VALID,27.1311,VALID,113,VALID,2.59531,
2012-07-29, 09:23:04,VALID,1005.88,VALID,0,VALID,76.9983,VALID,287.074,VALID,27.1311,VALID,87,VALID,1.93945,
2012-07-29, 09:24:04,VALID,1005.91,VALID,0,VALID,77.3874,VALID,289.031,VALID,27.1526,VALID,91,VALID,3.32617,
2012-07-29, 09:25:04,VALID,1005.91,VALID,0,VALID,77.2272,VALID,291.883,VALID,27.1506,VALID,82,VALID,2.42148,
2012-07-29, 09:26:04,VALID,1005.92,VALID,0,VALID,76.9373,VALID,295.307,VALID,27.1485,VALID,99,VALID,3.91797,
2012-07-29, 09:27:04,VALID,1005.91,VALID,0,VALID,77.3492,VALID,297.018,VALID,27.1311,VALID,86,VALID,3.17031,
2012-07-29, 09:28:04,VALID,1005.89,VALID,0,VALID,77.6849,VALID,300.849,VALID,27.1311,VALID,97,VALID,1.42578,
2012-07-29, 09:29:04,VALID,1005.93,VALID,0,VALID,78.4249,VALID,312.016,VALID,27.17,VALID,118,VALID,1.44766,
2012-07-29, 09:30:04,VALID,1005.91,VALID,0,VALID,78.6156,VALID,321.39,VALID,27.1895,VALID,130,VALID,1.96328,
2012-07-29, 09:31:04,VALID,1005.89,VALID,0,VALID,79.203,VALID,332.149,VALID,27.2111,VALID,113,VALID,2.02383,
2012-07-29, 09:32:04,VALID,1005.89,VALID,0,VALID,79.1191,VALID,348.777,VALID,27.1895,VALID,110,VALID,2.23945,
2012-07-29, 09:33:04,VALID,1005.87,VALID,0,VALID,78.7148,VALID,370.132,VALID,27.1895,VALID,116,VALID,1.48242,
2012-07-29, 09:34:04,VALID,1005.87,VALID,0,VALID,80.0575,VALID,393.607,VALID,27.1895,VALID,107,VALID,2.33633,
2012-07-29, 09:35:04,VALID,1005.77,VALID,0,VALID,79.882,VALID,420.749,VALID,27.209,VALID,123,VALID,1.89023,
2012-07-29, 09:36:04,VALID,1005.79,VALID,0,VALID,78.2799,VALID,468.106,VALID,27.2285,VALID,128,VALID,2.55156,
2012-07-29, 09:37:04,VALID,1005.75,VALID,0,VALID,78.7529,VALID,477.153,VALID,27.2869,VALID,123,VALID,1.7625,
2012-07-29, 09:38:04,VALID,1005.68,VALID,0,VALID,78.8216,VALID,439.659,VALID,27.3238,VALID,128,VALID,1.66367,
2012-07-29, 09:39:04,VALID,1005.63,VALID,0,VALID,78.7377,VALID,416.511,VALID,27.4623,VALID,110,VALID,1.24258,
2012-07-29, 09:40:04,VALID,1005.58,VALID,0,VALID,77.4942,VALID,387.656,VALID,27.4623,VALID,117,VALID,2.18555,
2012-07-29, 09:41:04,VALID,1005.54,VALID,0,VALID,78.2189,VALID,371.029,VALID,27.5013,VALID,124,VALID,1.27109,
2012-07-29, 09:42:04,VALID,1005.54,VALID,0,VALID,78.3486,VALID,359.78,VALID,27.5403,VALID,116,VALID,2.2125,
2012-07-29, 09:43:04,VALID,1005.51,VALID,0,VALID,77.7993,VALID,351.303,VALID,27.5208,VALID,111,VALID,2.05859,
2012-07-29, 09:44:04,VALID,1005.49,VALID,0,VALID,78.3028,VALID,343.642,VALID,27.5034,VALID,96,VALID,1.67344,
2012-07-29, 09:45:04,VALID,1005.46,VALID,0,VALID,79.0962,VALID,336.469,VALID,27.4233,VALID,122,VALID,3.225,
2012-07-29, 09:46:04,VALID,1005.45,VALID,0,VALID,78.1884,VALID,330.763,VALID,27.3823,VALID,120,VALID,2.58125,
2012-07-29, 09:47:04,VALID,1005.47,VALID,0,VALID,79.5921,VALID,325.873,VALID,27.4018,VALID,115,VALID,1.52305,
2012-07-29, 09:48:04,VALID,1005.47,VALID,0,VALID,76.983,VALID,320.901,VALID,27.3628,VALID,103,VALID,2.82227,
2012-07-29, 09:49:04,VALID,1005.45,VALID,0,VALID,78.1731,VALID,315.929,VALID,27.3044,VALID,124,VALID,2.00469,
2012-07-29, 09:50:04,VALID,1005.44,VALID,0,VALID,77.4255,VALID,311.038,VALID,27.3259,VALID,100,VALID,2.62227,
2012-07-29, 09:51:04,VALID,1005.43,VALID,0,VALID,78.3333,VALID,305.903,VALID,27.3044,VALID,128,VALID,1.89883,
2012-07-29, 09:52:04,VALID,1005.45,VALID,0,VALID,77.9672,VALID,300.523,VALID,27.3454,VALID,103,VALID,3.17266,
2012-07-29, 09:53:04,VALID,1005.4,VALID,0,VALID,77.3416,VALID,295.062,VALID,27.2849,VALID,107,VALID,2.51797,
2012-07-29, 09:54:04,VALID,1005.41,VALID,0,VALID,78.0816,VALID,291.068,VALID,27.3044,VALID,98,VALID,2.49102,
2012-07-29, 09:55:04,VALID,1005.45,VALID,0,VALID,77.6849,VALID,289.194,VALID,27.2849,VALID,105,VALID,2.325,
2012-07-29, 09:56:04,VALID,1005.42,VALID,0,VALID,78.0816,VALID,290.253,VALID,27.2654,VALID,99,VALID,1.41523,
2012-07-29, 09:57:04,VALID,1005.42,VALID,0,VALID,77.662,VALID,292.128,VALID,27.2849,VALID,112,VALID,1.46328,
2012-07-29, 09:58:04,VALID,1005.35,VALID,0,VALID,76.5558,VALID,296.529,VALID,27.2869,VALID,34,VALID,2.95742,
2012-07-29, 09:59:04,VALID,1005.31,VALID,0,VALID,77.0135,VALID,302.235,VALID,27.3454,VALID,101,VALID,1.18711,
2012-07-29, 10:00:04,VALID,1005.33,VALID,0,VALID,75.6022,VALID,306.8,VALID,27.3628,VALID,95,VALID,3.04727,
2012-07-29, 10:01:04,VALID,1005.31,VALID,0,VALID,74.4884,VALID,312.668,VALID,27.3259,VALID,142,VALID,3.05156,
2012-07-29, 10:02:04,VALID,1005.28,VALID,0,VALID,76.3117,VALID,318.048,VALID,27.3454,VALID,127,VALID,1.95508,
2012-07-29, 10:03:04,VALID,1005.3,VALID,0,VALID,77.9977,VALID,317.803,VALID,27.3649,VALID,112,VALID,1.99727,
2012-07-29, 10:04:04,VALID,1005.27,VALID,0,VALID,76.2964,VALID,319.189,VALID,27.3649,VALID,108,VALID,2.49414,
2012-07-29, 10:05:04,VALID,1005.27,VALID,0,VALID,76.3193,VALID,323.346,VALID,27.3259,VALID,127,VALID,3.32969,
2012-07-29, 10:06:04,VALID,1005.28,VALID,0,VALID,77.4713,VALID,329.296,VALID,27.3649,VALID,103,VALID,1.43594,
2012-07-29, 10:07:04,VALID,1005.26,VALID,0,VALID,76.6397,VALID,336.306,VALID,27.4644,VALID,122,VALID,2.4918,
2012-07-29, 10:08:04,VALID,1005.22,VALID,0,VALID,78.1579,VALID,344.701,VALID,27.4818,VALID,115,VALID,1.19844,
2012-07-29, 10:09:04,VALID,1005.24,VALID,0,VALID,76.4261,VALID,354.564,VALID,27.5403,VALID,132,VALID,1.78164,
2012-07-29, 10:10:04,VALID,1005.25,VALID,0,VALID,76.7313,VALID,363.367,VALID,27.5403,VALID,127,VALID,2.43945,
2012-07-29, 10:11:04,VALID,1005.22,VALID,0,VALID,76.716,VALID,370.05,VALID,27.5792,VALID,103,VALID,1.72109,
2012-07-29, 10:12:04,VALID,1005.25,VALID,0,VALID,76.1667,VALID,374.696,VALID,27.6203,VALID,93,VALID,2.40273,
2012-07-29, 10:13:04,VALID,1005.24,VALID,0,VALID,75.7014,VALID,373.881,VALID,27.6008,VALID,116,VALID,2.80664,
2012-07-29, 10:14:04,VALID,1005.23,VALID,0,VALID,75.0071,VALID,372.577,VALID,27.5987,VALID,130,VALID,2.43711,
2012-07-29, 10:15:04,VALID,1005.24,VALID,0,VALID,74.4808,VALID,368.583,VALID,27.6377,VALID,136,VALID,2.87148,
2012-07-29, 10:16:04,VALID,1005.25,VALID,0,VALID,75.6937,VALID,364.345,VALID,27.6356,VALID,112,VALID,3.60273,
2012-07-29, 10:17:04,VALID,1005.23,VALID,0,VALID,76.2659,VALID,362.552,VALID,27.6767,VALID,118,VALID,2.17578,
2012-07-29, 10:18:04,VALID,1005.22,VALID,0,VALID,75.4115,VALID,361.492,VALID,27.7546,VALID,128,VALID,2.38086,
2012-07-29, 10:19:04,VALID,1005.22,VALID,0,VALID,75.5412,VALID,362.226,VALID,27.7741,VALID,123,VALID,3.17773,
2012-07-29, 10:20:04,VALID,1005.21,VALID,0,VALID,76.449,VALID,363.774,VALID,27.772,VALID,112,VALID,1.65234,
2012-07-29, 10:21:04,VALID,1005.18,VALID,0,VALID,75.3504,VALID,366.627,VALID,27.8305,VALID,137,VALID,0.776172,
2012-07-29, 10:22:04,VALID,1005.15,VALID,0,VALID,75.3886,VALID,371.599,VALID,27.8911,VALID,151,VALID,2.30352,
2012-07-29, 10:23:04,VALID,1005.16,VALID,0,VALID,75.1521,VALID,378.364,VALID,27.8305,VALID,138,VALID,3.86602,
2012-07-29, 10:24:04,VALID,1005.16,VALID,0,VALID,74.0001,VALID,384.641,VALID,27.8694,VALID,95,VALID,2.43555,
2012-07-29, 10:25:04,VALID,1005.11,VALID,0,VALID,74.3434,VALID,389.042,VALID,27.8521,VALID,119,VALID,2.48203,
2012-07-29, 10:26:04,VALID,1005.11,VALID,0,VALID,75.9989,VALID,391.65,VALID,27.8521,VALID,133,VALID,1.77031,
2012-07-29, 10:27:04,VALID,1005.1,VALID,0,VALID,74.5799,VALID,398.09,VALID,27.8521,VALID,118,VALID,2.54219,
2012-07-29, 10:28:04,VALID,1005.07,VALID,0,VALID,75.0224,VALID,407.952,VALID,27.8305,VALID,117,VALID,1.89961,
2012-07-29, 10:29:04,VALID,1005.05,VALID,0,VALID,75.503,VALID,424.743,VALID,27.9084,VALID,128,VALID,1.75117,
2012-07-29, 10:30:04,VALID,1005.06,VALID,0,VALID,74.9614,VALID,443.735,VALID,27.9495,VALID,111,VALID,2.60742,
2012-07-29, 10:31:04,VALID,1005.02,VALID,0,VALID,73.6721,VALID,472.752,VALID,27.9105,VALID,111,VALID,2.78086,
2012-07-29, 10:32:04,VALID,1005.02,VALID,0,VALID,74.8393,VALID,479.68,VALID,27.9495,VALID,120,VALID,1.98281,
2012-07-29, 10:33:04,VALID,1005,VALID,0,VALID,75.0682,VALID,452.537,VALID,28.0859,VALID,101,VALID,2.14727,
2012-07-29, 10:34:04,VALID,1005.02,VALID,0,VALID,74.2443,VALID,447.402,VALID,28.1249,VALID,133,VALID,2.04453,
2012-07-29, 10:35:04,VALID,1004.99,VALID,0,VALID,73.4966,VALID,469.817,VALID,28.1444,VALID,136,VALID,3.13594,
2012-07-29, 10:36:04,VALID,1004.98,VALID,0,VALID,72.2684,VALID,437.458,VALID,28.1639,VALID,101,VALID,2.85977,
2012-07-29, 10:37:04,VALID,1005.02,VALID,0,VALID,74.229,VALID,416.348,VALID,28.1423,VALID,134,VALID,2.21836,
2012-07-29, 10:38:04,VALID,1004.97,VALID,0,VALID,72.215,VALID,419.771,VALID,28.1444,VALID,126,VALID,3.47813,
2012-07-29, 10:39:04,VALID,1004.97,VALID,0,VALID,71.7191,VALID,433.627,VALID,28.1249,VALID,120,VALID,3.09687,
2012-07-29, 10:40:04,VALID,1004.97,VALID,0,VALID,73.5882,VALID,448.544,VALID,28.1444,VALID,109,VALID,1.93086,
2012-07-29, 10:41:04,VALID,1005,VALID,0,VALID,72.0166,VALID,484.734,VALID,28.2224,VALID,95,VALID,1.60195,
2012-07-29, 10:42:04,VALID,1005.03,VALID,0,VALID,73.4432,VALID,471.855,VALID,28.2419,VALID,121,VALID,1.90937,
2012-07-29, 10:43:04,VALID,1005.03,VALID,0,VALID,72.7032,VALID,460.688,VALID,28.322,VALID,101,VALID,2.07891,
2012-07-29, 10:44:04,VALID,1005.07,VALID,0,VALID,72.215,VALID,470.795,VALID,28.2419,VALID,102,VALID,2.63438,
2012-07-29, 10:45:04,VALID,1005.02,VALID,0,VALID,73.1686,VALID,509.92,VALID,28.3003,VALID,116,VALID,1.28906,
2012-07-29, 10:46:04,VALID,1005.03,VALID,0,VALID,71.8717,VALID,523.369,VALID,28.3978,VALID,124,VALID,2.35391,
2012-07-29, 10:47:04,VALID,1005.06,VALID,0,VALID,71.8869,VALID,478.865,VALID,28.4173,VALID,125,VALID,1.50117,
2012-07-29, 10:48:04,VALID,1005.06,VALID,0,VALID,71.3453,VALID,437.051,VALID,28.4151,VALID,121,VALID,2.22109,
2012-07-29, 10:49:04,VALID,1005.07,VALID,0,VALID,73.1915,VALID,454.412,VALID,28.4368,VALID,123,VALID,3.06445,
2012-07-29, 10:50:04,VALID,1005.06,VALID,0,VALID,70.9791,VALID,497.041,VALID,28.3762,VALID,119,VALID,2.57578,
2012-07-29, 10:51:04,VALID,1005.02,VALID,0,VALID,72.0777,VALID,535.106,VALID,28.2982,VALID,104,VALID,1.6332,
2012-07-29, 10:52:04,VALID,1005.03,VALID,0,VALID,72.955,VALID,566.242,VALID,28.3783,VALID,123,VALID,2.5918,
2012-07-29, 10:53:04,VALID,1005.07,VALID,0,VALID,73.489,VALID,511.794,VALID,28.3567,VALID,88,VALID,2.80977,
2012-07-29, 10:54:04,VALID,1004.98,VALID,0,VALID,72.4362,VALID,503.399,VALID,28.3567,VALID,102,VALID,2.02813,
2012-07-29, 10:55:04,VALID,1005.03,VALID,0,VALID,73.1152,VALID,471.203,VALID,28.3372,VALID,102,VALID,2.38594,
2012-07-29, 10:56:04,VALID,1005.04,VALID,0,VALID,73.7942,VALID,442.186,VALID,28.3372,VALID,116,VALID,3.01563,
2012-07-29, 10:57:04,VALID,1004.98,VALID,0,VALID,72.9397,VALID,420.015,VALID,28.2397,VALID,114,VALID,2.67109,
2012-07-29, 10:58:04,VALID,1004.97,VALID,0,VALID,71.9785,VALID,401.92,VALID,28.2029,VALID,88,VALID,3.72031,
2012-07-29, 10:59:04,VALID,1004.98,VALID,0,VALID,73.901,VALID,402.899,VALID,28.0838,VALID,104,VALID,2.73555,
2012-07-29, 11:00:04,VALID,1004.91,VALID,0,VALID,73.6263,VALID,394.177,VALID,28.0254,VALID,82,VALID,3.75391,
2012-07-29, 11:01:04,VALID,1004.9,VALID,0,VALID,73.7636,VALID,385.456,VALID,27.9711,VALID,97,VALID,3.60703,
2012-07-29, 11:02:04,VALID,1004.92,VALID,0,VALID,74.0154,VALID,388.39,VALID,27.9105,VALID,104,VALID,3.55039,
2012-07-29, 11:03:04,VALID,1004.9,VALID,0,VALID,75.6632,VALID,371.436,VALID,27.9321,VALID,76,VALID,1.83945,
2012-07-29, 11:04:04,VALID,1004.91,VALID,0,VALID,74.6715,VALID,359.373,VALID,27.8911,VALID,88,VALID,3.57305,
2012-07-29, 11:05:04,VALID,1004.87,VALID,0,VALID,74.8241,VALID,354.156,VALID,27.8521,VALID,112,VALID,2.24961,
2012-07-29, 11:06:04,VALID,1004.89,VALID,0,VALID,76.1896,VALID,332.556,VALID,27.8347,VALID,104,VALID,2.35781,
2012-07-29, 11:07:04,VALID,1004.91,VALID,0,VALID,76.2125,VALID,337.773,VALID,27.8542,VALID,88,VALID,2.37227,
2012-07-29, 11:08:04,VALID,1004.9,VALID,0,VALID,75.9913,VALID,324.079,VALID,27.9321,VALID,120,VALID,3.05312,
2012-07-29, 11:09:04,VALID,1004.9,VALID,0,VALID,75.6861,VALID,333.453,VALID,27.8716,VALID,97,VALID,2.93984,
2012-07-29, 11:10:04,VALID,1004.89,VALID,0,VALID,75.9226,VALID,335.735,VALID,27.8932,VALID,115,VALID,2.38047,
2012-07-29, 11:11:04,VALID,1004.9,VALID,0,VALID,76.8152,VALID,340.707,VALID,27.9127,VALID,92,VALID,1.59297,
2012-07-29, 11:12:04,VALID,1004.91,VALID,0,VALID,76.327,VALID,350.407,VALID,27.9711,VALID,106,VALID,1.93242,
2012-07-29, 11:13:04,VALID,1004.87,VALID,0,VALID,76.5253,VALID,366.301,VALID,27.9885,VALID,98,VALID,1.69375,
2012-07-29, 11:14:04,VALID,1004.87,VALID,0,VALID,75.3962,VALID,369.072,VALID,28.0881,VALID,78,VALID,1.99336,
2012-07-29, 11:15:04,VALID,1004.92,VALID,0,VALID,76.121,VALID,361.818,VALID,28.0665,VALID,98,VALID,3.0043,
2012-07-29, 11:16:04,VALID,1004.86,VALID,0,VALID,74.8546,VALID,354.971,VALID,28.0296,VALID,98,VALID,3.17305,
2012-07-29, 11:17:04,VALID,1004.86,VALID,0,VALID,73.4356,VALID,353.015,VALID,27.9733,VALID,108,VALID,2.79336,
2012-07-29, 11:18:04,VALID,1004.86,VALID,0,VALID,74.9461,VALID,356.275,VALID,27.8716,VALID,141,VALID,2.96445,
2012-07-29, 11:19:04,VALID,1004.89,VALID,0,VALID,75.0987,VALID,369.072,VALID,27.8911,VALID,91,VALID,2.95625,
2012-07-29, 11:20:04,VALID,1004.87,VALID,0,VALID,73.8399,VALID,386.76,VALID,27.8737,VALID,111,VALID,2.75391,
2012-07-29, 11:21:04,VALID,1004.81,VALID,0,VALID,75.3733,VALID,403.714,VALID,27.8131,VALID,85,VALID,1.20547,
2012-07-29, 11:22:04,VALID,1004.82,VALID,0,VALID,74.557,VALID,378.69,VALID,27.8542,VALID,123,VALID,1.74375,
2012-07-29, 11:23:04,VALID,1004.77,VALID,0,VALID,75.3047,VALID,366.79,VALID,27.8932,VALID,89,VALID,1.09492,
2012-07-29, 11:24:04,VALID,1004.76,VALID,0,VALID,74.0688,VALID,353.341,VALID,27.8131,VALID,138,VALID,3.67773,
2012-07-29, 11:25:04,VALID,1004.78,VALID,0,VALID,76.3193,VALID,337.936,VALID,27.7762,VALID,110,VALID,2.44336,
2012-07-29, 11:26:04,VALID,1004.77,VALID,0,VALID,76.8915,VALID,326.932,VALID,27.7351,VALID,89,VALID,1.21992,
2012-07-29, 11:27:04,VALID,1004.74,VALID,0,VALID,75.4191,VALID,317.559,VALID,27.7157,VALID,124,VALID,2.99102,
2012-07-29, 11:28:04,VALID,1004.7,VALID,0,VALID,74.8164,VALID,308.511,VALID,27.7178,VALID,111,VALID,2.62461,
2012-07-29, 11:29:04,VALID,1004.66,VALID,0,VALID,77.0746,VALID,301.828,VALID,27.6767,VALID,138,VALID,1.54805,
2012-07-29, 11:30:04,VALID,1004.68,VALID,0,VALID,76.7999,VALID,296.04,VALID,27.6962,VALID,107,VALID,1.82813,
2012-07-29, 11:31:04,VALID,1004.65,VALID,0,VALID,77.5018,VALID,287.971,VALID,27.6377,VALID,113,VALID,2.11484,
2012-07-29, 11:32:04,VALID,1004.65,VALID,0,VALID,77.3034,VALID,278.516,VALID,27.6203,VALID,137,VALID,1.76875,
2012-07-29, 11:33:04,VALID,1004.63,VALID,0,VALID,78.9513,VALID,271.751,VALID,27.5598,VALID,98,VALID,1.24648,
2012-07-29, 11:34:04,VALID,1004.62,VALID,0,VALID,78.3028,VALID,264.252,VALID,27.5208,VALID,123,VALID,2.45039,
2012-07-29, 11:35:04,VALID,1004.61,VALID,0,VALID,77.9595,VALID,257.161,VALID,27.5229,VALID,108,VALID,1.5957,
2012-07-29, 11:36:04,VALID,1004.58,VALID,0,VALID,77.8298,VALID,245.505,VALID,27.5013,VALID,93,VALID,0.833203,
2012-07-29, 11:37:04,VALID,1004.6,VALID,0,VALID,79.3098,VALID,239.147,VALID,27.5403,VALID,122,VALID,2.25273,
2012-07-29, 11:38:04,VALID,1004.55,VALID,0,VALID,76.5863,VALID,234.012,VALID,27.4644,VALID,133,VALID,2.56055,
2012-07-29, 11:39:04,VALID,1004.56,VALID,0,VALID,78.6232,VALID,226.513,VALID,27.4254,VALID,113,VALID,2.05234,
2012-07-29, 11:40:04,VALID,1004.52,VALID,0,VALID,78.0129,VALID,220.4,VALID,27.3844,VALID,133,VALID,2.26211,
2012-07-29, 11:41:04,VALID,1004.54,VALID,0,VALID,78.8292,VALID,213.716,VALID,27.367,VALID,95,VALID,2.49141,
2012-07-29, 11:42:04,VALID,1004.51,VALID,0,VALID,78.8216,VALID,207.44,VALID,27.367,VALID,69,VALID,1.87148,
2012-07-29, 11:43:04,VALID,1004.49,VALID,0,VALID,78.9894,VALID,199.778,VALID,27.3064,VALID,115,VALID,1.33086,
2012-07-29, 11:44:04,VALID,1004.5,VALID,0,VALID,78.3257,VALID,192.443,VALID,27.3064,VALID,102,VALID,2.23867,
2012-07-29, 11:45:04,VALID,1004.53,VALID,0,VALID,79.9736,VALID,191.627,VALID,27.328,VALID,83,VALID,1.13789,
2012-07-29, 11:46:04,VALID,1004.47,VALID,0,VALID,80.767,VALID,190.079,VALID,27.289,VALID,126,VALID,1.28086,
2012-07-29, 11:47:04,VALID,1004.47,VALID,0,VALID,77.601,VALID,189.264,VALID,27.289,VALID,122,VALID,2.65625,
2012-07-29, 11:48:04,VALID,1004.47,VALID,0,VALID,78.3867,VALID,189.753,VALID,27.2306,VALID,88,VALID,2.45898,
2012-07-29, 11:49:04,VALID,1004.45,VALID,0,VALID,79.081,VALID,191.546,VALID,27.17,VALID,111,VALID,2.34609,